User: anonymous
Location: Albany
(35.0000°S, 118.0000°E)
Time: 13:36:00
(UTC-04:00)
Language:

Atlas Centaur 2 - Orbit

View from above orbital plane
View from above orbital plane
View from above satellite
View from above satellite

Ground track
Ground track

The orbit data is extracted from the following two-line orbital elements,

1 00694U 63047A   14109.17062911  .00004296  00000-0  56714-3 0  4869
2 00694 030.3575 029.5953 0599113 106.3660 034.0326 13.99353083520613
Epoch (UTC): 19 April 2014 04:05:42
Eccentricity: 0.0599113
inclination: 30.3575°
perigee height: 460 km
apogee height: 1332 km
right ascension of ascending node: 29.5953°
argument of perigee: 106.3660°
revolutions per day: 13.99353083
mean anomaly at epoch: 34.0326°
orbit number at epoch: 52061

The dashed part of the orbit path shows where the satellite is in the earth's shadow,  

DLR